"datetime","# probes","# resolvers","can_ipv6","can_ipv6_prbs","can_tcp","can_tcp_prbs","can_tcp6","can_tcp6_prbs","does_ecs","does_ecs_prbs","does_flagday","does_flagday_prbs","does_rov4","does_rov4_prbs","does_rov6","does_rov6_prbs","does_qnamemin","doesnt_qnamemin","does_qnamemin_prbs","doesnt_qnamemin_prbs","does_nxdomain","doesnt_nxdomain","does_nxdomain_prbs","doesnt_nxdomain_prbs","has_ta_19036","hasnt_ta_19036","has_ta_19036_prbs","hasnt_ta_19036_prbs","has_ta_20326","hasnt_ta_20326","has_ta_20326_prbs","hasnt_ta_20326_prbs","can_rsamd5","cannot_rsamd5","broken_rsamd5","can_rsamd5_prbs","cannot_rsamd5_prbs","broken_rsamd5_prbs","can_dsa","cannot_dsa","broken_dsa","can_dsa_prbs","cannot_dsa_prbs","broken_dsa_prbs","can_rsasha1","cannot_rsasha1","broken_rsasha1","can_rsasha1_prbs","cannot_rsasha1_prbs","broken_rsasha1_prbs","can_dsansec3","cannot_dsansec3","broken_dsansec3","can_dsansec3_prbs","cannot_dsansec3_prbs","broken_dsansec3_prbs","can_rsansec3","cannot_rsansec3","broken_rsansec3","can_rsansec3_prbs","cannot_rsansec3_prbs","broken_rsansec3_prbs","can_rsasha256","cannot_rsasha256","broken_rsasha256","can_rsasha256_prbs","cannot_rsasha256_prbs","broken_rsasha256_prbs","can_rsasha512","cannot_rsasha512","broken_rsasha512","can_rsasha512_prbs","cannot_rsasha512_prbs","broken_rsasha512_prbs","can_eccgost","cannot_eccgost","broken_eccgost","can_eccgost_prbs","cannot_eccgost_prbs","broken_eccgost_prbs","can_ecdsa256","cannot_ecdsa256","broken_ecdsa256","can_ecdsa256_prbs","cannot_ecdsa256_prbs","broken_ecdsa256_prbs","can_ecdsa384","cannot_ecdsa384","broken_ecdsa384","can_ecdsa384_prbs","cannot_ecdsa384_prbs","broken_ecdsa384_prbs","can_ed25519","cannot_ed25519","broken_ed25519","can_ed25519_prbs","cannot_ed25519_prbs","broken_ed25519_prbs","can_ed448","cannot_ed448","broken_ed448","can_ed448_prbs","cannot_ed448_prbs","broken_ed448_prbs","can_gost","cannot_gost","broken_gost","can_gost_prbs","cannot_gost_prbs","broken_gost_prbs","can_sha384","cannot_sha384","broken_sha384","can_sha384_prbs","cannot_sha384_prbs","broken_sha384_prbs","is_internal","is_forwarding","is_external","is_internal_prbs","is_forwarding_prbs","is_external_prbs"
2017-06-20T23:59:59Z,87,121,85,65,120,87,80,63,50,34,0,0,0,0,0,0,2,119,2,87,0,121,0,87,0,0,0,0,0,0,0,0,6,80,35,7,75,25,13,108,0,40,77,1,46,75,0,50,58,1,12,109,0,40,78,1,44,77,0,50,60,1,44,77,0,50,60,1,44,77,0,50,60,1,0,121,0,34,87,1,44,77,0,50,60,1,44,77,0,50,60,1,0,121,0,0,87,1,0,121,0,0,87,1,34,87,0,45,68,1,43,77,0,49,60,1,24,35,62,45,32,44
2017-06-21T23:59:59Z,89,124,88,67,124,89,85,65,54,37,0,0,0,0,0,0,2,122,2,89,0,124,0,89,0,0,0,0,0,0,0,0,6,81,37,7,77,27,13,111,0,41,79,1,48,76,0,52,59,1,12,112,0,41,80,1,47,77,0,52,60,1,47,77,0,52,60,1,47,77,0,52,60,1,0,124,0,35,89,1,46,78,0,52,61,1,46,78,0,52,61,1,0,124,0,0,89,1,0,124,0,0,89,1,39,85,0,47,66,1,45,78,0,51,61,1,24,36,64,46,33,45
2017-06-22T23:59:59Z,89,125,88,67,125,89,83,64,53,36,0,0,0,0,0,0,2,122,2,89,0,125,0,89,0,0,0,0,0,0,0,0,6,83,36,7,78,26,13,112,0,42,79,1,48,77,0,52,59,1,11,114,0,41,81,1,47,78,0,52,60,1,47,78,0,52,60,1,47,78,0,52,60,1,0,125,0,36,89,1,45,80,0,52,62,1,45,80,0,52,62,1,0,125,0,0,89,1,0,125,0,0,89,1,38,86,1,48,66,2,44,79,1,51,61,2,24,37,64,47,33,45
2017-06-23T23:59:57Z,87,120,84,65,120,87,81,62,48,33,0,0,0,0,0,0,2,117,2,87,0,120,0,87,0,0,0,0,0,0,0,0,6,81,33,7,76,24,12,108,0,40,78,1,43,77,0,50,60,1,11,109,0,39,79,1,44,76,0,50,59,1,44,76,0,50,59,1,44,76,0,50,59,1,0,120,0,34,87,1,44,76,0,50,59,1,44,76,0,50,59,1,0,120,0,0,87,1,0,120,0,0,87,1,36,83,1,46,64,2,41,77,1,49,60,2,23,37,60,45,34,43
2017-06-24T23:59:59Z,86,120,84,64,120,86,80,62,51,35,0,0,0,0,0,0,2,117,2,86,0,120,0,86,0,0,0,0,0,0,0,0,7,79,34,8,74,24,11,109,0,38,78,1,43,77,0,48,60,1,11,109,0,38,78,1,44,76,0,48,59,1,44,76,0,48,59,1,44,76,0,48,59,1,0,120,0,33,86,1,44,76,0,48,59,1,44,76,0,48,59,1,0,120,0,0,86,1,0,120,0,0,86,1,35,84,1,44,65,2,41,77,1,47,60,2,22,37,61,44,34,43
2017-06-25T23:59:58Z,87,122,87,66,122,87,83,63,51,35,0,0,0,0,0,0,2,119,2,87,0,122,0,87,0,0,0,0,0,0,0,0,6,84,32,7,76,23,13,109,0,39,77,1,43,79,0,49,60,1,13,109,0,39,78,1,42,79,1,49,60,2,42,80,0,49,61,1,42,80,0,49,61,1,0,122,0,33,87,1,42,80,0,49,61,1,42,80,0,49,61,1,0,122,0,0,87,1,0,122,0,0,87,1,33,88,1,45,67,2,41,79,1,48,60,2,23,39,60,44,35,43
2017-06-26T23:59:59Z,89,124,88,67,124,89,83,64,50,34,0,0,0,0,0,0,2,121,2,89,0,124,0,89,0,0,0,0,0,0,0,0,7,82,35,7,77,25,12,112,0,39,80,1,45,79,0,50,61,1,12,112,0,39,80,1,45,79,0,50,61,1,45,79,0,50,61,1,45,79,0,50,61,1,0,124,0,34,89,1,45,79,0,50,61,1,45,79,0,50,61,1,0,124,0,0,89,1,0,124,0,0,89,1,35,88,1,46,68,2,43,79,1,49,61,2,22,39,63,44,36,44
2017-06-27T23:59:59Z,87,120,84,65,120,87,76,60,47,32,0,0,0,0,0,0,2,117,2,87,0,120,0,87,0,0,0,0,0,0,0,0,7,82,31,8,76,22,13,107,0,37,77,1,41,78,1,47,60,2,12,108,0,37,78,1,42,78,0,47,60,1,42,78,0,47,60,1,42,78,0,47,60,1,0,120,0,32,87,1,41,79,0,47,61,1,41,79,0,47,61,1,0,120,0,0,87,1,0,120,0,0,87,1,31,88,1,43,68,2,39,79,1,46,61,2,22,39,59,42,36,42
2017-06-28T23:59:59Z,90,125,88,68,125,90,84,65,49,34,0,0,0,0,0,0,2,122,2,90,0,125,0,90,0,0,0,0,0,0,0,0,8,84,33,9,77,24,15,110,0,41,79,1,46,79,0,51,60,2,13,112,0,40,81,1,45,80,0,51,61,2,45,80,0,51,61,1,45,80,0,51,61,1,0,125,0,33,90,2,43,82,0,51,63,2,43,82,0,51,63,2,0,125,0,1,90,1,0,125,0,0,90,1,34,90,1,45,68,3,44,79,1,50,60,2,24,39,62,46,36,44
2017-06-29T23:59:59Z,88,125,88,66,125,88,85,64,48,32,0,0,0,0,0,0,3,121,3,88,0,125,0,88,0,0,0,0,0,0,0,0,8,83,34,8,76,24,14,111,0,38,79,1,46,79,0,49,60,1,14,111,0,38,79,1,46,79,0,49,60,1,46,79,0,49,60,1,46,79,0,49,60,1,0,125,0,31,88,1,45,80,0,49,61,1,45,80,0,49,61,1,0,125,0,0,88,1,0,125,0,0,88,1,35,89,1,43,66,2,45,78,1,48,59,2,23,39,63,43,36,43
2017-06-30T23:59:59Z,88,123,86,66,123,88,81,64,47,33,0,0,0,0,0,0,3,119,3,88,0,123,0,88,0,0,0,0,0,0,0,0,8,84,31,9,77,23,15,108,0,40,78,1,44,79,0,50,60,1,14,109,0,39,79,1,45,78,0,50,59,1,45,78,0,50,59,1,44,78,1,50,59,2,0,123,0,32,88,2,44,79,0,50,60,1,44,79,0,50,60,1,0,123,0,0,88,1,0,123,0,0,88,1,32,90,1,44,67,2,44,77,1,49,58,2,23,39,61,43,36,44
2017-07-01T23:59:59Z,89,124,87,67,124,89,83,65,47,33,0,0,0,0,0,0,2,121,2,89,0,124,0,89,0,0,0,0,0,0,0,0,8,84,32,9,76,24,15,109,0,38,79,1,45,79,0,50,60,1,14,110,0,38,80,1,44,80,0,50,61,1,44,80,0,50,61,1,44,80,0,50,61,1,0,124,0,31,89,2,45,79,0,50,60,1,45,79,0,50,60,1,0,124,0,0,89,1,0,124,0,0,89,1,33,90,1,44,67,2,43,79,1,49,60,2,23,40,61,42,37,44
2017-07-02T23:59:59Z,90,126,89,69,126,90,82,66,49,34,0,0,0,0,0,0,3,122,3,90,0,126,0,90,0,0,0,0,0,0,0,0,8,85,33,8,78,24,14,112,0,40,81,1,45,81,0,51,62,1,14,112,0,40,81,1,46,80,0,51,61,1,46,80,0,51,61,1,46,80,0,51,61,1,0,126,0,33,90,1,44,82,0,51,63,1,44,82,0,51,63,1,0,126,0,0,90,1,0,126,0,0,90,1,33,92,1,45,69,2,44,80,1,50,61,2,24,40,62,45,37,44
2017-07-03T23:59:59Z,88,127,90,68,127,88,85,65,49,33,0,0,0,0,0,0,4,122,3,88,0,127,0,88,0,0,0,0,0,0,0,0,8,86,33,7,77,23,14,113,0,38,79,1,45,82,0,48,61,1,14,113,0,38,79,1,45,82,0,48,61,1,45,82,0,48,61,1,45,82,0,48,61,1,0,127,0,31,88,1,44,83,0,48,62,1,44,83,0,48,62,1,0,127,0,0,88,1,0,127,0,0,88,1,33,93,1,42,68,2,44,81,1,47,60,2,27,37,63,45,34,43
2017-07-04T23:59:58Z,91,131,93,70,131,91,87,66,50,33,0,0,0,0,0,0,4,126,3,91,0,131,0,91,0,0,0,0,0,0,0,0,8,89,34,8,79,24,16,115,0,40,80,1,48,83,0,51,62,1,15,116,0,40,81,1,47,84,0,51,63,1,47,84,0,51,63,1,47,84,0,51,63,1,0,131,0,32,91,1,46,85,0,51,64,1,46,85,0,51,64,1,0,131,0,0,91,1,0,130,1,0,91,2,34,96,1,44,71,2,45,84,1,50,63,2,29,38,64,47,35,45
2017-07-05T23:59:59Z,90,129,91,69,129,90,84,65,49,33,0,0,0,0,0,0,3,125,2,90,0,129,0,90,0,0,0,0,0,0,0,0,8,86,35,8,78,24,15,114,0,41,80,1,48,81,0,51,60,1,15,114,0,41,80,1,47,82,0,51,61,1,47,82,0,51,61,1,47,82,0,51,61,1,0,129,0,33,90,1,47,82,0,51,61,1,47,82,0,51,61,1,0,129,0,0,90,1,0,129,0,0,90,1,34,94,1,44,69,2,45,82,1,50,61,2,28,37,64,47,34,45
2017-07-06T23:59:59Z,90,129,91,69,129,90,80,65,48,32,0,0,0,0,0,0,4,124,3,90,0,129,0,90,0,0,0,0,0,0,0,0,8,88,33,8,79,23,16,113,0,40,79,1,47,82,0,50,61,1,15,114,0,40,80,1,46,83,0,50,62,1,47,82,0,50,61,1,47,82,0,50,61,1,0,129,0,32,90,1,47,82,0,50,61,1,47,82,0,50,61,1,0,129,0,0,90,1,0,129,0,0,90,1,34,94,1,43,69,2,44,83,1,49,62,2,28,38,63,46,35,44
2017-07-07T23:59:59Z,90,130,92,69,130,90,88,66,49,32,0,0,0,0,0,0,4,125,3,90,0,130,0,90,0,0,0,0,0,0,0,0,8,86,36,7,78,24,15,115,0,40,80,1,49,81,0,50,60,1,15,115,0,40,80,1,48,82,0,50,61,1,48,82,0,50,61,1,48,82,0,50,61,1,0,130,0,32,90,1,48,82,0,50,62,1,47,83,0,50,62,1,0,130,0,0,90,1,0,130,0,0,90,1,35,94,1,43,69,2,47,81,1,49,60,2,26,39,65,45,36,44
2017-07-08T23:59:59Z,89,128,90,68,127,89,86,65,48,32,0,0,0,0,0,0,3,124,2,89,0,128,0,89,0,0,0,0,0,0,0,0,8,87,33,7,78,23,15,113,0,39,79,1,46,82,0,49,61,1,15,113,0,39,79,1,46,82,0,49,61,1,46,82,0,49,61,1,46,82,0,49,61,1,0,128,0,31,89,1,45,83,0,49,62,1,45,83,0,49,62,1,0,128,0,0,89,1,0,128,0,0,89,1,34,93,1,42,68,2,44,82,1,48,61,2,28,37,63,46,34,43
2017-07-09T23:59:59Z,90,129,93,70,127,90,88,67,49,32,0,0,0,0,0,0,3,125,2,90,0,129,0,90,0,0,0,0,0,0,0,0,8,86,35,8,79,24,15,114,0,42,80,1,48,81,0,52,61,1,16,113,0,43,79,1,49,80,0,52,60,1,49,80,0,52,60,1,49,80,0,52,60,1,0,129,0,34,90,1,49,80,0,52,60,1,49,80,0,52,60,1,0,129,0,0,90,1,0,129,0,0,90,1,36,92,1,45,68,2,46,81,1,51,61,2,28,35,66,48,33,46
2017-07-10T23:59:57Z,89,127,89,69,127,89,84,66,46,31,0,0,0,0,0,0,3,123,2,89,1,126,1,89,0,0,0,0,0,0,0,0,8,88,31,8,78,22,16,111,0,41,78,1,45,82,0,51,61,1,15,112,0,41,79,1,45,82,0,51,61,1,45,82,0,51,62,1,45,82,0,51,61,1,0,127,0,33,89,1,45,82,0,51,61,1,45,82,0,51,61,1,0,127,0,0,89,1,0,127,0,0,89,1,31,94,2,44,69,3,42,82,2,50,61,3,27,38,62,47,35,44
2017-07-11T23:59:55Z,86,124,89,67,124,86,85,64,49,33,0,0,0,0,0,0,3,120,2,86,0,124,0,86,0,0,0,0,0,0,0,0,6,85,33,6,75,23,13,111,0,39,77,1,44,80,0,49,59,1,14,110,0,39,77,1,46,78,0,49,58,1,45,79,0,49,58,1,45,79,0,49,58,1,0,124,0,31,86,1,45,79,0,49,59,1,45,79,0,49,59,1,0,124,0,0,86,1,0,124,0,0,86,1,33,90,1,42,66,2,43,79,1,48,59,2,27,35,62,45,32,43
2017-07-12T23:59:59Z,91,129,93,71,129,91,88,68,50,34,0,0,0,0,0,0,3,125,2,91,0,129,0,91,0,0,0,0,0,0,0,0,6,88,35,7,79,25,13,116,0,41,82,1,46,83,0,52,62,1,13,116,0,41,82,1,46,83,0,52,62,1,46,83,0,52,62,1,46,83,0,52,62,1,0,129,0,33,91,1,46,83,0,52,62,1,46,83,0,52,62,1,0,129,0,0,91,1,0,129,0,0,91,1,36,92,1,45,68,2,45,82,1,51,61,2,28,37,64,47,34,46
2017-07-13T23:59:58Z,87,124,89,68,124,87,84,65,47,32,0,0,0,0,0,0,4,119,3,87,0,124,0,87,0,0,0,0,0,0,0,0,7,85,32,7,76,23,13,111,0,40,78,1,43,81,0,50,60,1,13,111,0,40,78,1,43,81,0,50,60,1,43,81,0,50,60,1,43,81,0,50,60,1,0,124,0,32,87,1,44,80,0,50,60,1,43,81,0,50,60,1,0,124,0,0,87,1,0,124,0,0,87,1,33,90,1,43,66,2,42,80,1,49,59,2,28,35,61,47,32,44
2017-07-14T23:59:59Z,88,126,91,69,126,88,86,66,49,33,0,0,0,0,0,0,4,121,3,88,0,126,0,88,0,0,0,0,0,0,0,0,6,86,34,7,77,24,13,113,0,40,79,1,45,81,0,50,60,1,13,113,0,40,79,1,45,81,0,50,60,1,45,81,0,50,60,1,45,81,0,50,60,1,0,126,0,32,88,1,45,81,0,50,60,1,46,80,0,50,59,1,0,126,0,0,88,1,0,126,0,0,88,1,34,91,1,43,67,2,43,81,1,49,60,2,27,39,60,46,35,43
2017-07-15T23:59:59Z,87,124,90,68,124,87,85,65,48,32,0,0,0,0,0,0,3,120,2,87,0,124,0,87,0,0,0,0,0,0,0,0,6,83,35,7,75,24,13,111,0,40,78,1,46,78,0,50,58,1,13,111,0,40,78,1,46,78,0,50,58,1,46,78,0,50,58,1,46,78,0,50,58,1,0,124,0,32,87,1,46,78,0,50,58,1,46,78,0,50,58,1,0,124,0,0,87,1,0,124,0,0,87,1,35,88,1,43,65,2,44,78,1,49,58,2,29,36,59,46,33,42
2017-07-16T23:59:59Z,87,124,89,67,124,87,84,64,48,32,0,0,0,0,0,0,3,120,2,87,0,124,0,87,0,0,0,0,0,0,0,0,6,84,34,7,75,23,14,110,0,39,77,1,46,78,0,49,58,1,13,111,0,39,78,1,45,79,0,49,59,1,45,79,0,49,59,1,44,80,0,49,60,1,0,124,0,31,87,1,45,79,0,49,59,1,45,79,0,49,59,1,0,124,0,0,87,1,0,124,0,0,87,1,34,89,1,42,66,2,42,80,1,48,60,2,29,37,58,45,34,41
2017-07-17T23:59:59Z,88,126,91,68,126,88,86,65,49,32,0,0,0,0,0,0,3,122,2,88,0,126,0,88,0,0,0,0,0,0,0,0,6,84,36,7,74,24,14,112,0,37,78,1,48,78,0,49,58,1,13,113,0,37,79,1,46,80,0,49,60,1,46,80,0,49,60,1,45,80,1,49,60,2,0,126,0,29,88,1,45,81,0,49,61,1,45,81,0,49,61,1,0,126,0,0,88,1,0,126,0,0,88,1,36,89,1,42,66,2,45,79,1,48,59,2,30,37,59,44,34,41
2017-07-18T23:59:58Z,89,129,94,69,129,89,89,66,53,34,0,0,0,0,0,0,3,125,2,89,0,129,0,89,0,0,0,0,0,0,0,0,6,84,39,7,77,26,13,116,0,41,80,1,50,79,0,52,59,1,13,115,1,41,80,2,51,78,0,52,58,1,51,78,0,52,58,1,51,78,0,52,58,1,0,129,0,33,89,1,50,79,0,52,59,1,50,79,0,52,59,1,0,129,0,0,89,1,0,129,0,0,89,1,39,89,1,45,66,2,50,77,1,51,57,2,30,36,63,48,33,43
2017-07-19T23:59:58Z,87,126,92,68,126,87,87,64,54,35,0,0,0,0,0,0,3,122,2,87,0,126,0,87,0,0,0,0,0,0,0,0,6,81,39,7,75,26,14,112,0,40,77,1,51,75,0,51,56,1,13,113,0,40,78,1,51,75,0,51,56,1,51,75,0,51,56,1,50,75,1,51,56,2,0,126,0,32,87,1,50,76,0,51,57,1,50,76,0,51,57,1,0,126,0,0,87,1,0,126,0,0,87,1,40,85,1,44,63,2,49,75,1,50,56,2,30,35,61,47,32,42
2017-07-20T23:59:59Z,87,125,91,68,125,87,86,64,51,33,0,0,0,0,0,0,3,121,2,87,0,125,0,87,0,0,0,0,0,0,0,0,6,82,37,7,75,25,14,111,0,40,77,1,49,76,0,51,57,1,13,112,0,40,78,1,48,77,0,51,58,1,48,77,0,51,58,1,48,77,0,51,58,1,0,125,0,32,87,1,47,78,0,51,59,1,47,78,0,51,59,1,0,125,0,0,87,1,0,125,0,0,87,1,38,86,1,44,64,2,46,77,1,50,58,2,29,37,59,47,34,41
2017-07-21T23:59:59Z,87,126,91,67,126,87,87,62,54,35,0,0,0,0,0,0,4,121,3,87,0,126,0,87,0,0,0,0,0,0,0,0,6,81,39,6,74,26,13,113,0,38,78,1,50,76,0,50,57,1,13,113,0,38,78,1,51,75,0,50,56,1,51,75,0,50,56,1,51,75,0,50,56,1,0,126,0,30,87,1,49,77,0,50,58,1,49,77,0,50,58,1,0,126,0,0,87,1,0,126,0,0,87,1,39,86,1,43,64,2,48,76,1,49,57,2,30,35,61,45,32,41
2017-07-22T23:59:56Z,84,122,88,65,122,84,84,60,51,33,0,0,0,0,0,0,4,117,3,84,0,122,0,84,0,0,0,0,0,0,0,0,6,80,36,6,71,24,13,109,0,36,75,1,48,74,0,48,55,1,13,109,0,36,75,1,48,74,0,48,55,1,48,74,0,48,55,1,49,73,0,48,55,1,0,122,0,28,84,1,46,76,0,48,57,1,46,76,0,48,57,1,0,122,0,0,84,1,0,122,0,0,84,1,37,84,1,41,62,2,45,75,1,47,56,2,30,34,58,43,31,39
2017-07-23T23:59:59Z,87,126,91,67,126,87,87,62,54,35,0,0,0,0,0,0,3,122,2,87,0,126,0,87,0,0,0,0,0,0,0,0,6,82,38,7,74,25,14,112,0,38,77,1,50,76,0,50,57,1,13,113,0,38,78,1,50,76,0,50,57,1,51,75,0,50,57,1,51,75,0,50,57,1,0,126,0,30,87,1,49,77,0,50,58,1,49,77,0,50,58,1,0,126,0,0,87,1,0,126,0,0,87,1,38,87,1,43,65,2,48,76,1,49,57,2,29,37,60,44,34,41
2017-07-24T23:59:59Z,87,127,93,68,127,87,89,63,53,34,0,0,0,0,0,0,3,123,2,87,0,127,0,87,0,0,0,0,0,0,0,0,6,81,40,7,73,26,15,112,0,39,77,1,53,74,0,51,55,1,14,113,0,39,78,1,51,76,0,51,57,1,52,75,0,51,57,1,51,76,0,51,57,1,0,127,0,31,87,1,49,78,0,49,58,1,52,75,0,51,56,1,0,127,0,0,87,1,0,127,0,0,87,1,32,93,2,43,70,3,50,75,1,50,56,2,30,36,61,45,33,42
2017-07-25T23:59:55Z,87,127,93,68,127,87,89,63,54,35,0,0,0,0,0,0,3,123,2,87,0,127,0,87,0,0,0,0,0,0,0,0,7,80,40,7,73,26,14,113,0,39,78,1,52,75,0,51,56,1,14,113,0,39,78,1,51,76,0,51,57,1,51,76,0,51,57,1,51,76,0,51,57,1,0,127,0,31,87,1,50,77,0,51,58,1,50,77,0,51,58,1,0,127,0,0,87,1,0,127,0,0,87,1,39,87,1,44,64,2,51,74,1,50,55,2,31,35,61,46,32,42
2017-07-26T23:59:57Z,89,130,96,70,130,89,92,65,57,37,0,0,0,0,0,0,3,126,2,89,0,130,0,89,0,0,0,0,0,0,0,0,6,81,43,7,75,28,15,115,0,41,79,1,56,74,0,53,55,1,14,116,0,41,80,1,55,75,0,53,56,1,56,74,0,53,56,1,55,75,0,53,56,1,0,130,0,33,89,1,54,76,0,53,57,1,54,76,0,53,57,1,0,130,0,0,89,1,0,130,0,0,89,1,43,86,1,46,63,2,52,76,1,52,57,2,30,36,64,47,33,44
2017-07-27T23:59:59Z,89,129,95,69,129,89,91,64,55,35,0,0,0,0,0,0,3,125,2,89,0,129,0,89,0,0,0,0,0,0,0,0,6,82,41,7,76,27,15,114,0,40,79,1,54,75,0,52,56,1,15,114,0,40,80,1,54,75,0,52,57,1,55,74,0,52,56,1,55,74,0,52,56,1,0,129,0,32,89,1,52,77,0,52,58,1,52,77,0,52,58,1,0,129,0,0,89,1,0,129,0,0,89,1,41,87,1,45,64,2,51,76,1,51,57,2,30,36,63,47,33,43
2017-07-28T23:59:59Z,88,128,94,68,128,88,90,63,56,36,0,0,0,0,0,0,3,124,2,88,0,128,0,88,0,0,0,0,0,0,0,0,6,81,41,6,75,27,14,114,0,39,79,1,53,75,0,51,56,1,14,114,0,39,79,1,54,74,0,51,55,1,54,74,0,51,55,1,54,74,0,51,55,1,0,128,0,31,88,1,53,75,0,51,56,1,53,75,0,51,56,1,0,128,0,0,88,1,0,128,0,0,88,1,41,86,1,44,63,2,52,74,1,50,55,2,28,37,63,45,34,42
2017-07-29T23:59:57Z,89,128,93,68,128,89,89,63,54,34,0,0,0,0,0,0,4,123,3,89,0,128,0,89,0,0,0,0,0,0,0,0,7,81,40,8,74,26,16,112,0,40,78,1,54,74,0,52,56,1,15,113,0,40,79,1,52,76,0,52,58,1,52,76,0,52,58,1,53,75,0,52,57,1,0,128,0,31,89,1,53,75,0,52,57,1,53,75,0,52,57,1,0,128,0,0,89,1,0,128,0,0,89,1,40,87,1,44,65,2,51,75,1,51,57,2,29,39,60,45,36,41
2017-07-30T23:59:58Z,88,126,92,67,126,88,88,63,55,36,0,0,0,0,0,0,3,122,2,88,0,126,0,88,0,0,0,0,0,0,0,0,7,79,40,7,73,26,15,111,0,39,78,1,53,73,0,51,55,1,15,111,0,39,78,1,52,74,0,51,56,1,53,73,0,51,55,1,52,74,0,51,56,1,0,126,0,30,88,1,51,75,0,51,57,1,51,75,0,51,57,1,0,126,0,0,88,1,0,126,0,0,88,1,39,86,1,43,64,2,50,74,1,50,56,2,26,40,60,44,37,40
2017-07-31T23:59:59Z,88,128,96,69,127,88,92,65,57,37,0,0,0,0,0,0,4,123,3,88,0,128,0,88,0,0,0,0,0,0,0,0,8,79,41,8,74,27,16,112,0,41,77,1,55,73,0,53,54,1,15,113,0,41,78,1,55,73,0,53,54,1,55,73,0,53,54,1,56,72,0,53,54,1,0,128,0,32,88,1,55,73,0,53,54,1,54,74,0,53,55,1,0,128,0,0,88,1,0,128,0,0,88,1,42,85,1,45,62,2,53,73,1,52,54,2,29,36,63,47,33,43
2017-08-01T23:59:57Z,89,129,96,69,128,89,92,65,57,37,0,0,0,0,0,0,3,125,2,89,0,128,0,89,0,0,0,0,0,0,0,0,7,81,41,8,75,27,16,113,0,41,78,1,55,74,0,53,55,1,15,114,0,41,79,1,55,74,0,53,55,1,56,73,0,53,55,1,56,73,0,53,55,1,0,129,0,32,89,1,53,76,0,53,57,1,53,76,0,53,57,1,0,129,0,0,89,1,0,129,0,0,89,1,41,87,1,45,64,2,54,73,1,52,54,2,29,37,63,47,34,43
2017-08-02T23:59:58Z,88,127,94,68,125,88,90,64,54,36,0,0,0,0,0,0,3,123,2,88,0,127,0,88,0,0,0,0,0,0,0,0,7,82,38,7,75,26,15,112,0,40,78,1,51,76,0,51,56,1,15,112,0,40,78,1,51,76,0,51,56,1,51,76,0,51,56,1,52,75,0,51,56,1,0,127,0,31,88,1,52,75,0,52,56,1,52,75,0,52,56,1,0,127,0,0,88,1,0,127,0,0,88,1,38,88,1,43,64,2,49,76,1,50,56,2,25,42,60,45,37,41
2017-08-03T23:59:59Z,89,127,94,69,127,89,90,65,54,36,0,0,0,0,0,0,3,123,2,89,0,127,0,89,0,0,0,0,0,0,0,0,7,81,39,8,75,26,16,111,0,41,78,1,53,74,0,52,55,1,16,111,0,41,79,1,52,75,0,52,56,1,53,74,0,52,56,1,52,75,0,52,56,1,0,127,0,32,89,1,52,75,0,52,56,1,52,75,0,52,56,1,0,127,0,0,89,1,0,127,0,0,89,1,39,87,1,44,64,2,50,75,1,51,56,2,29,38,60,47,35,42
2017-08-04T23:59:59Z,90,130,95,70,130,90,91,66,54,36,0,0,0,0,0,0,3,126,2,90,0,130,0,90,0,0,0,0,0,0,0,0,7,84,39,8,78,27,16,114,0,42,79,1,53,77,0,53,57,1,15,115,0,42,80,1,53,77,0,53,57,1,53,77,0,53,57,1,53,77,0,53,57,1,0,130,0,33,90,1,51,79,0,53,59,1,51,79,0,53,59,1,0,130,0,0,90,1,0,130,0,0,90,1,40,89,1,45,65,2,51,77,1,52,57,2,28,39,63,47,36,43
2017-08-05T23:59:57Z,89,127,93,69,126,89,88,65,52,35,0,0,0,0,0,0,4,122,3,89,0,127,0,89,0,0,0,0,0,0,0,0,7,83,37,8,76,25,16,111,0,42,78,1,51,76,0,52,56,1,15,112,0,42,79,1,50,77,0,52,57,1,50,77,0,52,57,1,50,77,0,52,57,1,0,127,0,33,89,1,49,78,0,52,58,1,49,78,0,52,58,1,0,127,0,0,89,1,0,127,0,0,89,1,37,89,1,44,65,2,48,77,1,51,57,2,28,38,61,47,35,43
2017-08-06T23:59:57Z,90,128,92,68,128,90,88,64,52,35,0,0,0,0,0,0,3,124,2,90,0,128,0,90,0,0,0,0,0,0,0,0,7,85,36,7,78,25,15,113,0,41,80,1,49,79,0,51,59,1,15,113,0,41,80,1,49,79,0,51,59,1,50,78,0,51,58,1,50,78,0,51,58,1,0,128,0,32,90,1,48,80,0,51,60,1,48,80,0,51,60,1,0,128,0,0,90,1,0,128,0,0,90,1,37,90,1,43,66,2,47,79,1,50,59,2,28,39,61,46,36,42
2017-08-07T23:59:59Z,95,136,98,73,136,95,94,68,57,38,0,0,0,0,0,0,3,132,2,95,0,136,0,95,0,0,0,0,0,0,0,0,7,86,43,8,80,29,16,120,0,45,84,1,57,79,0,57,59,1,15,121,0,45,85,1,55,81,0,57,61,1,55,81,0,57,61,1,55,81,0,57,61,1,0,136,0,36,95,1,54,82,0,56,62,1,54,82,0,56,62,1,0,136,0,0,95,1,0,136,0,0,95,1,41,94,1,48,70,2,54,80,1,55,60,2,31,39,66,51,36,46
2017-08-08T23:59:59Z,93,133,95,71,133,93,90,66,54,36,0,0,0,0,0,0,3,129,2,93,0,133,0,93,0,0,0,0,0,0,0,0,7,86,40,8,80,27,16,117,0,44,82,1,54,79,0,54,59,1,15,118,0,44,83,1,53,80,0,54,60,1,54,79,0,54,60,1,54,79,0,54,60,1,0,133,0,35,93,1,52,81,0,54,61,1,52,81,0,54,61,1,0,133,0,0,93,1,0,133,0,0,93,1,39,93,1,46,69,2,52,79,1,53,59,2,31,39,63,50,36,44
2017-08-09T23:59:58Z,94,135,98,73,135,94,94,68,56,37,0,0,0,0,0,0,3,131,2,94,0,135,0,94,0,0,0,0,0,0,0,0,7,87,41,8,81,28,16,119,0,45,83,1,55,80,0,56,60,1,15,120,0,45,84,1,55,80,0,56,60,1,54,81,0,56,61,1,55,80,0,56,60,1,0,135,0,36,94,1,54,81,0,56,61,1,54,81,0,56,61,1,0,135,0,0,94,1,0,135,0,0,94,1,41,93,1,48,69,2,53,80,1,55,60,2,30,39,66,50,36,46
2017-08-10T23:59:56Z,92,133,97,72,133,92,92,67,56,37,0,0,0,0,0,0,3,129,2,92,0,133,0,92,0,0,0,0,0,0,0,0,7,86,40,8,80,27,16,117,0,45,81,1,54,79,0,55,59,1,15,118,0,45,82,1,54,79,0,55,59,1,55,78,0,55,59,1,54,79,0,55,59,1,0,133,0,36,92,1,54,79,0,55,59,1,54,79,0,55,59,1,0,133,0,0,92,1,0,133,0,0,92,1,40,92,1,47,68,2,51,80,1,54,60,2,31,37,65,51,34,45
2017-08-11T23:59:59Z,91,131,95,71,131,91,91,66,55,37,0,0,0,0,0,0,3,127,2,91,0,131,0,91,0,0,0,0,0,0,0,0,7,85,39,7,79,27,15,116,0,44,81,1,52,79,0,54,59,1,15,116,0,44,81,1,53,78,0,54,58,1,53,78,0,54,58,1,53,78,0,54,58,1,0,131,0,35,91,1,51,80,0,54,60,1,51,80,0,54,60,1,0,131,0,0,91,1,0,131,0,0,91,1,40,90,1,46,66,2,50,79,1,53,59,2,28,39,64,50,35,44
2017-08-12T23:59:57Z,93,136,100,73,136,93,96,68,59,39,0,0,0,0,0,0,4,131,3,93,0,136,0,93,0,0,0,0,0,0,0,0,7,86,43,7,80,29,15,121,0,44,83,1,56,80,0,56,60,1,15,121,0,44,83,1,56,80,0,56,60,1,56,80,0,56,60,1,56,80,0,56,60,1,0,136,0,35,93,1,56,80,0,56,60,1,56,80,0,56,60,1,0,136,0,0,93,1,0,136,0,0,93,1,44,91,1,48,67,2,54,80,1,55,60,2,28,39,69,49,36,46
2017-08-13T23:59:57Z,95,139,102,74,139,95,98,69,58,38,0,0,0,0,0,0,4,134,3,95,0,139,0,95,0,0,0,0,0,0,0,0,7,90,42,8,84,28,16,123,0,47,84,1,56,83,0,57,62,1,15,124,0,47,85,1,55,84,0,57,63,1,55,84,0,57,63,1,55,84,0,57,63,1,0,139,0,38,95,1,54,85,0,57,64,1,54,85,0,57,64,1,0,139,0,0,95,1,0,139,0,0,95,1,42,96,1,49,71,2,53,84,1,56,63,2,31,40,68,52,37,46
2017-08-14T23:59:58Z,94,135,97,72,135,94,93,67,55,37,0,0,0,0,0,0,3,131,2,94,0,135,0,94,0,0,0,0,0,0,0,0,7,87,41,8,82,28,16,119,0,44,83,1,55,80,0,55,61,1,16,119,0,44,84,1,55,80,0,55,61,1,54,80,1,55,61,2,56,79,0,55,61,1,0,135,0,35,94,1,55,80,0,55,61,1,55,80,0,55,61,1,0,135,0,0,94,1,0,135,0,0,94,1,41,93,1,47,70,2,52,81,1,54,62,2,30,41,64,49,38,44
2017-08-15T23:59:58Z,91,132,95,70,132,91,91,65,53,35,0,0,0,0,0,0,3,128,2,91,0,132,0,91,0,0,0,0,0,0,0,0,7,86,39,8,81,26,16,116,0,43,80,1,54,78,0,52,59,1,15,117,0,43,81,1,53,79,0,52,60,1,54,78,0,52,60,1,53,79,0,52,60,1,0,132,0,34,91,1,52,80,0,52,61,1,52,80,0,52,61,1,0,132,0,0,91,1,0,131,1,0,91,2,40,91,1,45,68,2,51,79,1,51,60,2,29,40,63,48,37,43
2017-08-16T23:59:58Z,91,130,95,70,130,91,91,65,55,36,0,0,0,0,0,0,3,126,2,91,0,130,0,91,0,0,0,0,0,0,0,0,7,81,42,8,80,29,15,115,0,43,81,3,55,75,0,52,59,3,16,114,0,43,81,3,55,75,0,52,60,3,54,76,0,52,60,3,55,75,0,52,60,3,0,130,0,34,91,3,54,76,0,52,60,3,54,76,0,52,60,3,0,130,0,0,91,3,0,130,0,0,91,3,42,87,1,44,67,4,53,75,1,51,59,4,27,38,65,48,36,44
2017-08-17T23:59:59Z,91,131,94,70,131,91,90,65,54,36,0,0,0,0,0,0,3,127,2,91,0,131,0,91,0,0,0,0,0,0,0,0,7,82,42,8,80,28,15,116,0,43,81,1,55,76,0,52,58,1,15,116,0,43,81,1,56,75,0,52,58,1,55,76,0,52,58,1,55,76,0,52,58,1,0,131,0,34,91,1,55,76,0,53,58,1,55,76,0,53,58,1,0,131,0,0,91,1,0,131,0,0,91,1,42,88,1,44,66,2,54,75,1,51,57,2,28,39,64,48,36,44
2017-08-18T23:59:59Z,91,129,91,69,129,91,87,64,53,36,0,0,0,0,0,0,3,125,2,91,0,129,0,91,0,0,0,0,0,0,0,0,7,83,39,8,81,27,16,113,0,43,80,1,53,76,0,51,58,1,15,114,0,43,81,1,53,76,0,51,58,1,53,76,0,51,58,1,53,76,0,51,58,1,0,129,0,34,91,1,52,77,0,51,59,1,52,77,0,51,59,1,0,129,0,0,91,1,0,129,0,0,91,1,41,87,1,44,65,2,51,76,1,50,58,2,27,41,61,47,38,43
2017-08-19T23:59:59Z,90,129,91,68,129,90,87,63,53,35,0,0,0,0,0,0,4,124,3,90,0,129,0,90,0,0,0,0,0,0,0,0,7,83,39,8,80,26,16,113,0,42,79,1,53,76,0,50,58,1,15,114,0,42,80,1,52,77,0,50,59,1,53,76,0,50,58,1,53,76,0,50,58,1,0,129,0,33,90,1,51,78,0,50,60,1,51,78,0,50,60,1,0,129,0,0,90,1,0,129,0,0,90,1,39,89,1,42,67,2,52,75,1,49,57,2,27,41,61,46,38,42
2017-08-20T23:59:57Z,89,128,92,68,128,89,88,63,54,36,0,0,0,0,0,0,3,124,2,89,0,128,0,89,0,0,0,0,0,0,0,0,8,81,39,8,79,26,16,112,0,42,78,1,53,75,0,50,57,1,15,113,0,42,79,1,52,76,0,50,58,1,52,76,0,50,58,1,52,76,0,50,58,1,0,128,0,33,89,1,53,75,0,50,57,1,53,75,0,50,57,1,0,128,0,0,89,1,0,128,0,0,89,1,40,87,1,42,65,2,51,75,1,50,58,2,27,42,59,46,38,41
2017-08-21T23:59:59Z,90,128,91,68,128,90,86,63,54,36,0,0,0,0,0,0,3,124,2,90,0,128,0,90,0,0,0,0,0,0,0,0,7,82,39,8,80,26,16,112,0,42,79,1,53,75,0,50,58,1,16,112,0,42,80,1,53,75,0,51,58,1,52,76,0,50,59,1,52,76,0,50,59,1,0,128,0,33,90,1,51,77,0,50,60,1,51,77,0,50,60,1,0,128,0,0,90,1,0,128,0,0,90,1,39,88,1,42,67,2,50,76,1,49,59,2,28,41,59,47,38,41